HBSGO LSZR-EDNY

Flight info

Callsign HBSGO
Flight time N/A
Altitude 8000
Route ALAGO DCT ARFAS
Aircraft DA40/L-SBDGRY/S

Departure

Time 2026-04-20 06:33
Airport Sankt Gallen Altenrhein Airport (LSZR)

Arrival

Time N/A
Airport Bodensee Airport Friedrichshafen (EDNY)
Time Latitude Longitude Altitude Speed Heading
2026-04-20 06:22 47.48769 9.55366 1310 ft 0 kts 20°
2026-04-20 06:27 47.48770 9.55367 1310 ft 0 kts 58°
2026-04-20 06:27 47.48765 9.55369 1310 ft 2 kts 198°
2026-04-20 06:27 47.48734 9.55359 1310 ft 0 kts 147°
2026-04-20 06:27 47.48725 9.55430 1310 ft 22 kts 100°
2026-04-20 06:28 47.48677 9.55896 1310 ft 72 kts 92°
2026-04-20 06:28 47.48596 9.56667 1310 ft 60 kts 99°
2026-04-20 06:28 47.48562 9.57018 1310 ft 23 kts 98°
2026-04-20 06:28 47.48540 9.57069 1310 ft 0 kts 136°
2026-04-20 06:29 47.48540 9.57070 1310 ft 0 kts 97°
2026-04-20 06:31 47.48540 9.57071 1310 ft 2 kts 96°
2026-04-20 06:31 47.48535 9.57090 1310 ft 2 kts 165°
2026-04-20 06:32 47.48470 9.57075 1310 ft 20 kts 187°
2026-04-20 06:32 47.48406 9.56981 1309 ft 14 kts 277°
2026-04-20 06:32 47.48450 9.56596 1307 ft 63 kts 279°
2026-04-20 06:32 47.48531 9.55831 1409 ft 79 kts 277°
2026-04-20 06:33 47.48606 9.55005 1625 ft 81 kts 279°
2026-04-20 06:33 47.48705 9.54185 1865 ft 82 kts 279°
2026-04-20 06:33 47.48803 9.53362 2083 ft 82 kts 279°
2026-04-20 06:33 47.48904 9.52536 2287 ft 83 kts 279°
2026-04-20 06:34 47.49009 9.51689 2479 ft 85 kts 284°
2026-04-20 06:34 47.49480 9.51127 2501 ft 102 kts 360°
2026-04-20 06:34 47.50996 9.51660 2511 ft 120 kts 13°
2026-04-20 06:35 47.51759 9.52146 2504 ft 123 kts 47°
2026-04-20 06:35 47.51936 9.53343 2509 ft 125 kts 102°
2026-04-20 06:35 47.51726 9.54599 2505 ft 127 kts 102°
2026-04-20 06:35 47.51531 9.55875 2512 ft 127 kts 102°
2026-04-20 06:36 47.51334 9.57155 2509 ft 128 kts 102°
2026-04-20 06:36 47.51137 9.58434 2504 ft 128 kts 103°
2026-04-20 06:36 47.50940 9.59721 2510 ft 128 kts 103°
2026-04-20 06:36 47.50742 9.61009 2510 ft 128 kts 103°
2026-04-20 06:37 47.50541 9.62299 2506 ft 128 kts 107°
2026-04-20 06:37 47.49858 9.62889 2502 ft 122 kts 184°
2026-04-20 06:37 47.49028 9.62631 2365 ft 125 kts 196°
2026-04-20 06:37 47.48222 9.62185 2271 ft 118 kts 208°
2026-04-20 06:38 47.47936 9.61243 2217 ft 110 kts 275°
2026-04-20 06:38 47.48048 9.60101 1958 ft 110 kts 281°
2026-04-20 06:38 47.48185 9.59038 1755 ft 97 kts 262°
2026-04-20 06:38 47.48286 9.58116 1573 ft 93 kts 278°
2026-04-20 06:39 47.48384 9.57230 1388 ft 78 kts 280°
2026-04-20 06:39 47.48463 9.56503 1313 ft 67 kts 278°
2026-04-20 06:39 47.48525 9.55888 1312 ft 63 kts 278°
2026-04-20 06:39 47.48592 9.55215 1390 ft 65 kts 277°
2026-04-20 06:40 47.48646 9.54505 1534 ft 73 kts 275°
2026-04-20 06:40 47.48705 9.53728 1801 ft 75 kts 276°
2026-04-20 06:40 47.48767 9.52964 2083 ft 75 kts 276°
2026-04-20 06:40 47.48833 9.52190 2364 ft 76 kts 276°
2026-04-20 06:41 47.48899 9.51368 2492 ft 88 kts 277°
2026-04-20 06:41 47.48971 9.50411 2502 ft 98 kts 276°
2026-04-20 06:41 47.49048 9.49383 2511 ft 105 kts 276°
2026-04-20 06:41 47.49130 9.48285 2508 ft 110 kts 277°
2026-04-20 06:42 47.49257 9.47168 2507 ft 111 kts 296°
2026-04-20 06:42 47.49891 9.46628 2508 ft 111 kts
2026-04-20 06:42 47.50658 9.46752 2512 ft 111 kts
2026-04-20 06:42 47.51432 9.46850 2509 ft 112 kts
2026-04-20 06:43 47.52210 9.46949 2511 ft 112 kts
2026-04-20 06:43 47.52986 9.47049 2509 ft 112 kts
2026-04-20 06:43 47.53723 9.47356 2502 ft 112 kts 43°
2026-04-20 06:43 47.53922 9.48417 2500 ft 112 kts 95°
2026-04-20 06:44 47.53865 9.49568 2504 ft 112 kts 92°
2026-04-20 06:44 47.53825 9.50723 2509 ft 113 kts 92°
2026-04-20 06:44 47.53783 9.51882 2508 ft 113 kts 92°
2026-04-20 06:44 47.53741 9.53049 2504 ft 113 kts 92°
2026-04-20 06:45 47.53701 9.54200 2506 ft 113 kts 92°
2026-04-20 06:45 47.53661 9.55363 2505 ft 113 kts 92°
2026-04-20 06:45 47.53620 9.56527 2506 ft 113 kts 92°
2026-04-20 06:45 47.53578 9.57695 2505 ft 113 kts 92°
2026-04-20 06:46 47.53536 9.58862 2508 ft 114 kts 92°
2026-04-20 06:46 47.53495 9.60029 2505 ft 114 kts 92°
2026-04-20 06:46 47.53454 9.61199 2505 ft 114 kts 92°
2026-04-20 06:46 47.53416 9.62368 2505 ft 114 kts 92°
2026-04-20 06:47 47.53376 9.63537 2505 ft 114 kts 92°
2026-04-20 06:47 47.53339 9.64696 2504 ft 114 kts 92°
2026-04-20 06:47 47.53301 9.65867 2504 ft 114 kts 92°
2026-04-20 06:47 47.53551 9.66995 2506 ft 122 kts 53°
2026-04-20 06:48 47.54061 9.68027 2510 ft 126 kts 55°
2026-04-20 06:48 47.54572 9.69099 2514 ft 128 kts 54°
2026-04-20 06:48 47.55088 9.70181 2503 ft 129 kts 54°
2026-04-20 06:48 47.55608 9.71271 2510 ft 130 kts 54°
2026-04-20 06:49 47.56129 9.72356 2501 ft 129 kts 51°
2026-04-20 06:49 47.56894 9.72903 2592 ft 123 kts 357°
2026-04-20 06:49 47.57711 9.72662 2751 ft 117 kts 349°
2026-04-20 06:49 47.58388 9.72048 2903 ft 119 kts 307°
2026-04-20 06:50 47.58877 9.71074 3055 ft 116 kts 311°
2026-04-20 06:50 47.59397 9.70133 3215 ft 121 kts 311°
2026-04-20 06:50 47.59930 9.69163 3375 ft 125 kts 311°
2026-04-20 06:50 47.60489 9.68153 3546 ft 128 kts 310°
2026-04-20 06:51 47.61056 9.67122 3705 ft 129 kts 311°
2026-04-20 06:51 47.61633 9.66075 3873 ft 131 kts 311°
2026-04-20 06:51 47.62219 9.65021 4017 ft 133 kts 311°
2026-04-20 06:51 47.62804 9.63970 4188 ft 132 kts 311°
2026-04-20 06:52 47.63382 9.62922 4337 ft 131 kts 310°
2026-04-20 06:52 47.63955 9.61877 4489 ft 130 kts 311°
2026-04-20 06:52 47.64524 9.60837 4644 ft 129 kts 311°
2026-04-20 06:52 47.65093 9.59805 4800 ft 129 kts 311°
2026-04-20 06:53 47.65670 9.58769 4970 ft 132 kts 311°
2026-04-20 06:53 47.66264 9.57679 5001 ft 140 kts 310°
2026-04-20 06:53 47.66885 9.56558 5007 ft 143 kts 311°
2026-04-20 06:53 47.67521 9.55400 5002 ft 145 kts 311°
2026-04-20 06:54 47.68159 9.54244 5002 ft 145 kts 311°
2026-04-20 06:54 47.68801 9.53079 5005 ft 146 kts 311°
2026-04-20 06:54 47.69443 9.51908 5003 ft 146 kts 311°
2026-04-20 06:54 47.70085 9.50741 5006 ft 145 kts 311°
2026-04-20 06:55 47.70726 9.49571 5003 ft 146 kts 311°
2026-04-20 06:55 47.71371 9.48403 5013 ft 146 kts 310°
2026-04-20 06:55 47.72019 9.47221 5005 ft 148 kts 311°
2026-04-20 06:55 47.72668 9.46036 5001 ft 147 kts 311°
2026-04-20 06:56 47.73315 9.44846 5005 ft 148 kts 311°
2026-04-20 06:56 47.73969 9.43663 4999 ft 148 kts 311°
2026-04-20 06:56 47.74618 9.42478 5000 ft 147 kts 311°
2026-04-20 06:56 47.75262 9.41302 4999 ft 147 kts 311°
2026-04-20 06:57 47.75907 9.40125 4994 ft 147 kts 311°
2026-04-20 06:57 47.76544 9.38960 4992 ft 146 kts 311°
2026-04-20 06:57 47.77192 9.37781 5001 ft 148 kts 311°
2026-04-20 06:57 47.77843 9.36596 5005 ft 149 kts 311°
2026-04-20 06:58 47.78489 9.35386 4996 ft 149 kts 310°
2026-04-20 06:58 47.79138 9.34201 4997 ft 147 kts 311°
2026-04-20 06:58 47.79792 9.33017 4998 ft 150 kts 310°
2026-04-20 06:58 47.80453 9.31819 4984 ft 150 kts 311°
2026-04-20 06:59 47.81113 9.30610 4987 ft 149 kts 310°
2026-04-20 06:59 47.81754 9.29412 4984 ft 147 kts 310°
2026-04-20 06:59 47.82393 9.28235 4980 ft 147 kts 311°
2026-04-20 06:59 47.83019 9.27027 4980 ft 148 kts 302°
2026-04-20 07:00 47.83265 9.25557 4987 ft 150 kts 272°
2026-04-20 07:00 47.83006 9.24059 4985 ft 151 kts 242°
2026-04-20 07:00 47.82283 9.22913 4990 ft 155 kts 213°
2026-04-20 07:00 47.81290 9.22380 4986 ft 151 kts 191°
2026-04-20 07:01 47.80267 9.22021 5003 ft 151 kts 193°
2026-04-20 07:01 47.79243 9.21658 4996 ft 151 kts 193°
2026-04-20 07:01 47.78223 9.21293 4997 ft 150 kts 193°
2026-04-20 07:01 47.77206 9.20932 4987 ft 152 kts 193°
2026-04-20 07:02 47.76174 9.20565 4985 ft 152 kts 192°
2026-04-20 07:02 47.75151 9.20201 4982 ft 150 kts 193°
2026-04-20 07:02 47.74150 9.19845 4981 ft 146 kts 192°
2026-04-20 07:02 47.73180 9.19502 4988 ft 145 kts 192°
2026-04-20 07:03 47.72200 9.19155 4981 ft 144 kts 192°
2026-04-20 07:03 47.71228 9.18811 4981 ft 144 kts 192°
2026-04-20 07:03 47.70255 9.18466 4985 ft 144 kts 192°
2026-04-20 07:03 47.69273 9.18118 4990 ft 145 kts 192°
2026-04-20 07:04 47.68298 9.17772 4995 ft 144 kts 192°
2026-04-20 07:04 47.67321 9.17428 5004 ft 144 kts 192°
2026-04-20 07:04 47.66353 9.17083 4995 ft 142 kts 192°
2026-04-20 07:04 47.65402 9.16746 4993 ft 140 kts 193°
2026-04-20 07:05 47.64450 9.16446 4980 ft 140 kts 183°
2026-04-20 07:05 47.63506 9.16780 4898 ft 141 kts 150°
2026-04-20 07:05 47.62664 9.17530 4799 ft 141 kts 147°
2026-04-20 07:05 47.61813 9.18267 4691 ft 141 kts 148°
2026-04-20 07:06 47.60955 9.18996 4581 ft 143 kts 148°
2026-04-20 07:06 47.60104 9.19730 4463 ft 142 kts 148°
2026-04-20 07:06 47.59526 9.20225 4393 ft 143 kts 148°
2026-04-20 07:06 47.58383 9.21202 4246 ft 143 kts 149°
2026-04-20 07:07 47.57545 9.22034 4119 ft 145 kts 132°
2026-04-20 07:07 47.57062 9.23294 3995 ft 137 kts 105°
2026-04-20 07:07 47.57014 9.24207 3982 ft 129 kts 79°
2026-04-20 07:07 47.57278 9.25390 3993 ft 120 kts 63°
2026-04-20 07:08 47.57644 9.26499 4005 ft 118 kts 63°
2026-04-20 07:08 47.57991 9.27637 3993 ft 124 kts 62°
2026-04-20 07:08 47.58429 9.28700 3993 ft 119 kts 59°
2026-04-20 07:08 47.58845 9.29738 4002 ft 117 kts 59°
2026-04-20 07:09 47.59256 9.30794 4011 ft 121 kts 59°
2026-04-20 07:09 47.59677 9.31881 4003 ft 122 kts 60°
2026-04-20 07:09 47.60092 9.32952 3999 ft 118 kts 60°
2026-04-20 07:09 47.60498 9.34003 3948 ft 119 kts 60°
2026-04-20 07:10 47.60921 9.35098 3791 ft 126 kts 59°
2026-04-20 07:10 47.61365 9.36237 3612 ft 129 kts 60°
2026-04-20 07:10 47.61814 9.37400 3437 ft 130 kts 60°
2026-04-20 07:10 47.62266 9.38573 3249 ft 131 kts 60°
2026-04-20 07:11 47.62723 9.39745 3057 ft 132 kts 60°
2026-04-20 07:11 47.63180 9.40929 2871 ft 132 kts 60°
2026-04-20 07:11 47.63612 9.42051 2684 ft 116 kts 59°
2026-04-20 07:11 47.63990 9.43020 2518 ft 102 kts 60°
2026-04-20 07:12 47.64318 9.43872 2374 ft 89 kts 60°
2026-04-20 07:12 47.64613 9.44632 2249 ft 86 kts 59°
2026-04-20 07:12 47.64912 9.45406 2125 ft 88 kts 60°
2026-04-20 07:12 47.65219 9.46196 1997 ft 89 kts 59°
2026-04-20 07:13 47.65529 9.47004 1870 ft 91 kts 59°
2026-04-20 07:13 47.65840 9.47814 1749 ft 88 kts 60°
2026-04-20 07:13 47.66132 9.48578 1678 ft 75 kts 56°
2026-04-20 07:13 47.66394 9.49247 1533 ft 76 kts 57°
2026-04-20 07:14 47.66658 9.49919 1415 ft 74 kts 58°
2026-04-20 07:14 47.66903 9.50560 1351 ft 66 kts 59°
2026-04-20 07:14 47.67029 9.50880 1351 ft 55 kts 62°
2026-04-20 07:20 47.67119 9.51078 1355 ft 50 kts 58°
2026-04-20 07:20 47.67335 9.51663 1462 ft 70 kts 58°
2026-04-20 07:20 47.67574 9.52277 1700 ft 67 kts 57°
2026-04-20 07:21 47.67820 9.52870 1899 ft 71 kts 60°
2026-04-20 07:21 47.68058 9.53491 2161 ft 68 kts 58°
2026-04-20 07:21 47.68292 9.54107 2393 ft 69 kts 59°
2026-04-20 07:21 47.68524 9.54713 2640 ft 69 kts 58°
2026-04-20 07:22 47.68761 9.55321 2879 ft 67 kts 58°
2026-04-20 07:22 47.68997 9.55925 3178 ft 68 kts 59°
2026-04-20 07:22 47.69230 9.56531 3526 ft 68 kts 59°
2026-04-20 07:22 47.69462 9.57139 3832 ft 68 kts 58°
2026-04-20 07:23 47.69700 9.57751 4014 ft 69 kts 58°
2026-04-20 07:23 47.69938 9.58368 4292 ft 69 kts 59°
2026-04-20 07:23 47.70178 9.58992 4477 ft 71 kts 57°
2026-04-20 07:23 47.70468 9.59744 4527 ft 99 kts 60°
2026-04-20 07:24 47.70832 9.60714 4569 ft 116 kts 60°
2026-04-20 07:24 47.71247 9.61801 4519 ft 124 kts 60°
2026-04-20 07:24 47.71677 9.62916 4511 ft 125 kts 59°
2026-04-20 07:24 47.72152 9.63979 4506 ft 123 kts 41°
2026-04-20 07:25 47.72958 9.64344 4500 ft 126 kts
2026-04-20 07:25 47.73774 9.63893 4495 ft 128 kts 323°
2026-04-20 07:25 47.74236 9.62765 4496 ft 131 kts 289°
2026-04-20 07:25 47.74504 9.61469 4489 ft 133 kts 290°
2026-04-20 07:26 47.74791 9.60170 4493 ft 132 kts 291°
2026-04-20 07:26 47.75082 9.58861 4505 ft 135 kts 290°
2026-04-20 07:26 47.75377 9.57561 4514 ft 134 kts 290°
2026-04-20 07:26 47.75673 9.56228 4497 ft 136 kts 290°
2026-04-20 07:27 47.75975 9.54854 4485 ft 141 kts 290°
2026-04-20 07:27 47.76286 9.53442 4473 ft 148 kts 290°
2026-04-20 07:27 47.76605 9.52022 4516 ft 144 kts 291°
2026-04-20 07:27 47.76912 9.50613 4493 ft 143 kts 285°
2026-04-20 07:28 47.76865 9.49154 4496 ft 144 kts 253°
2026-04-20 07:28 47.76399 9.47836 4483 ft 144 kts 239°
2026-04-20 07:28 47.75897 9.46555 4502 ft 143 kts 241°
2026-04-20 07:28 47.75400 9.45273 4497 ft 143 kts 240°
2026-04-20 07:29 47.74909 9.43996 4499 ft 143 kts 241°
2026-04-20 07:29 47.74412 9.42716 4502 ft 143 kts 240°
2026-04-20 07:29 47.73916 9.41435 4495 ft 142 kts 240°
2026-04-20 07:29 47.73416 9.40153 4497 ft 146 kts 240°
2026-04-20 07:30 47.72914 9.38838 4519 ft 147 kts 241°
2026-04-20 07:30 47.72399 9.37525 4493 ft 145 kts 240°
2026-04-20 07:30 47.71897 9.36243 4498 ft 145 kts 240°
2026-04-20 07:30 47.71395 9.34954 4491 ft 144 kts 240°
2026-04-20 07:31 47.70895 9.33669 4496 ft 143 kts 240°
2026-04-20 07:31 47.70398 9.32387 4487 ft 142 kts 240°
2026-04-20 07:31 47.69914 9.31132 4490 ft 136 kts 244°
2026-04-20 07:31 47.69837 9.29739 4482 ft 142 kts 290°
2026-04-20 07:32 47.70445 9.28641 4488 ft 140 kts 333°
2026-04-20 07:32 47.71384 9.28457 4489 ft 137 kts 15°
2026-04-20 07:32 47.72137 9.29233 4489 ft 136 kts 55°
2026-04-20 07:32 47.72616 9.30451 4493 ft 136 kts 59°
2026-04-20 07:33 47.73095 9.31663 4511 ft 137 kts 59°
2026-04-20 07:33 47.73573 9.32873 4506 ft 135 kts 59°
2026-04-20 07:33 47.74052 9.34082 4475 ft 138 kts 59°
2026-04-20 07:33 47.74357 9.35399 4490 ft 137 kts 92°
2026-04-20 07:34 47.73920 9.36633 4491 ft 140 kts 134°
2026-04-20 07:34 47.73017 9.37166 4487 ft 147 kts 177°
2026-04-20 07:34 47.72092 9.36619 4496 ft 147 kts 223°
2026-04-20 07:35 47.71059 9.34059 4495 ft 144 kts 240°
2026-04-20 07:35 47.70559 9.32789 4491 ft 141 kts 240°
2026-04-20 07:35 47.70064 9.31534 4495 ft 141 kts 240°
2026-04-20 07:35 47.69772 9.30182 4494 ft 140 kts 276°
2026-04-20 07:36 47.70183 9.28934 4499 ft 137 kts 320°
2026-04-20 07:36 47.70949 9.28052 4494 ft 137 kts 324°
2026-04-20 07:36 47.71677 9.27185 4487 ft 135 kts 323°
2026-04-20 07:36 47.72333 9.26194 4480 ft 138 kts 297°
2026-04-20 07:37 47.72395 9.24785 4489 ft 138 kts 265°
2026-04-20 07:37 47.72307 9.23368 4518 ft 139 kts 267°
2026-04-20 07:37 47.72251 9.21904 4491 ft 140 kts 268°
2026-04-20 07:37 47.72200 9.20467 4489 ft 138 kts 268°
2026-04-20 07:38 47.72145 9.19042 4486 ft 137 kts 268°
2026-04-20 07:38 47.72090 9.17628 4484 ft 137 kts 268°
2026-04-20 07:38 47.72029 9.16198 4522 ft 142 kts 267°
2026-04-20 07:38 47.71976 9.14730 4486 ft 140 kts 268°
2026-04-20 07:39 47.71921 9.13290 4479 ft 139 kts 268°
2026-04-20 07:39 47.71864 9.11858 4474 ft 138 kts 268°
2026-04-20 07:39 47.71806 9.10435 4481 ft 138 kts 268°
2026-04-20 07:39 47.71750 9.09032 4469 ft 137 kts 268°
2026-04-20 07:40 47.71693 9.07616 4486 ft 137 kts 269°
2026-04-20 07:40 47.71643 9.06148 4489 ft 144 kts 267°
2026-04-20 07:40 47.71574 9.04698 4484 ft 140 kts 268°
2026-04-20 07:40 47.71515 9.03255 4482 ft 139 kts 268°
2026-04-20 07:41 47.71458 9.01833 4481 ft 138 kts 268°
2026-04-20 07:41 47.71401 9.00415 4479 ft 137 kts 268°
2026-04-20 07:41 47.71344 8.99003 4482 ft 137 kts 268°
2026-04-20 07:41 47.71286 8.97587 4479 ft 137 kts 268°
2026-04-20 07:42 47.71228 8.96173 4483 ft 137 kts 268°
2026-04-20 07:42 47.71172 8.94701 4497 ft 148 kts 270°
2026-04-20 07:42 47.71111 8.93173 4501 ft 149 kts 267°
2026-04-20 07:42 47.71040 8.91614 4493 ft 152 kts 267°
2026-04-20 07:43 47.70970 8.90042 4488 ft 153 kts 267°
2026-04-20 07:43 47.70907 8.88496 4476 ft 146 kts 268°
2026-04-20 07:43 47.70846 8.87033 4479 ft 142 kts 268°
2026-04-20 07:43 47.70783 8.85577 4479 ft 141 kts 267°
2026-04-20 07:44 47.70726 8.84129 4485 ft 140 kts 265°
2026-04-20 07:44 47.70651 8.82684 4482 ft 140 kts 268°
2026-04-20 07:44 47.70605 8.81219 4496 ft 146 kts 268°
2026-04-20 07:44 47.70549 8.79701 4485 ft 145 kts 267°
2026-04-20 07:45 47.70484 8.78243 4483 ft 141 kts 267°
2026-04-20 07:45 47.70417 8.76800 4482 ft 139 kts 267°
2026-04-20 07:45 47.70356 8.75382 4482 ft 137 kts 267°
2026-04-20 07:45 47.70294 8.73976 4483 ft 136 kts 267°
2026-04-20 07:46 47.70231 8.72562 4512 ft 140 kts 268°
2026-04-20 07:46 47.70171 8.71071 4477 ft 146 kts 268°
2026-04-20 07:46 47.70112 8.69569 4487 ft 146 kts 267°
2026-04-20 07:46 47.70040 8.68046 4495 ft 151 kts 265°
2026-04-20 07:47 47.69972 8.66521 4501 ft 146 kts 268°
2026-04-20 07:47 47.69907 8.64997 4483 ft 148 kts 268°
2026-04-20 07:47 47.69838 8.63496 4492 ft 145 kts 268°
2026-04-20 07:47 47.69776 8.61998 4491 ft 143 kts 267°
2026-04-20 07:48 47.69708 8.60536 4484 ft 140 kts 266°
2026-04-20 07:48 47.69642 8.59097 4543 ft 142 kts 267°
2026-04-20 07:48 47.69577 8.57556 4503 ft 153 kts 268°
2026-04-20 07:48 47.69513 8.55969 4507 ft 153 kts 266°
2026-04-20 07:49 47.69432 8.54409 4508 ft 150 kts 267°
2026-04-20 07:49 47.69369 8.52853 4490 ft 149 kts 268°
2026-04-20 07:49 47.69297 8.51335 4489 ft 147 kts 264°
2026-04-20 07:49 47.69230 8.49852 4485 ft 146 kts 267°
2026-04-20 07:50 47.69170 8.48342 4492 ft 146 kts 266°
2026-04-20 07:50 47.69091 8.46826 4482 ft 148 kts 266°
2026-04-20 07:50 47.69019 8.45303 4510 ft 146 kts 268°
2026-04-20 07:50 47.68962 8.43782 4526 ft 146 kts 268°
2026-04-20 07:51 47.69177 8.42344 4481 ft 141 kts 306°
2026-04-20 07:51 47.69905 8.41457 4488 ft 134 kts 341°
2026-04-20 07:51 47.70807 8.41367 4518 ft 131 kts 16°
2026-04-20 07:51 47.71587 8.42065 4569 ft 133 kts 46°
2026-04-20 07:52 47.71910 8.42859 4504 ft 137 kts 72°
2026-04-20 07:52 47.72026 8.44244 4502 ft 133 kts 83°
2026-04-20 07:52 47.72155 8.45607 4520 ft 136 kts 79°
2026-04-20 07:52 47.72275 8.46993 4490 ft 132 kts 83°
2026-04-20 07:53 47.72426 8.48788 4524 ft 131 kts 82°
2026-04-20 07:53 47.72509 8.49713 4505 ft 135 kts 82°
2026-04-20 07:53 47.72375 8.51081 4504 ft 141 kts 119°
2026-04-20 07:53 47.71642 8.52066 4506 ft 148 kts 154°
2026-04-20 07:54 47.70638 8.52187 4481 ft 151 kts 192°
2026-04-20 07:54 47.69799 8.51344 4500 ft 147 kts 233°
2026-04-20 07:54 47.69473 8.49942 4499 ft 144 kts 264°
2026-04-20 07:54 47.69362 8.48460 4515 ft 144 kts 263°
2026-04-20 07:55 47.69230 8.46973 4471 ft 148 kts 263°
2026-04-20 07:55 47.69097 8.45410 4316 ft 156 kts 264°
2026-04-20 07:55 47.68963 8.43791 4154 ft 157 kts 264°
2026-04-20 07:55 47.69130 8.42218 3940 ft 155 kts 303°
2026-04-20 07:56 47.69938 8.41272 3761 ft 148 kts 343°
2026-04-20 07:56 47.70933 8.41263 3598 ft 144 kts 18°
2026-04-20 07:56 47.71698 8.42137 3502 ft 137 kts 57°
2026-04-20 07:56 47.71979 8.43458 3516 ft 134 kts 87°
2026-04-20 07:57 47.72077 8.44811 3500 ft 131 kts 82°
2026-04-20 07:57 47.72208 8.46178 3483 ft 133 kts 82°
2026-04-20 07:57 47.72320 8.47514 3506 ft 130 kts 83°
2026-04-20 07:57 47.72432 8.48836 3508 ft 129 kts 82°
2026-04-20 07:58 47.72523 8.50180 3501 ft 133 kts 92°
2026-04-20 07:58 47.72166 8.51447 3503 ft 139 kts 127°
2026-04-20 07:58 47.71332 8.52177 3506 ft 145 kts 165°
2026-04-20 07:58 47.70347 8.52001 3489 ft 147 kts 205°
2026-04-20 07:59 47.69646 8.50955 3488 ft 146 kts 244°
2026-04-20 07:59 47.69446 8.49505 3495 ft 143 kts 265°
2026-04-20 07:59 47.69326 8.48041 3501 ft 143 kts 263°
2026-04-20 07:59 47.69193 8.46563 3504 ft 146 kts 263°
2026-04-20 08:00 47.69070 8.45065 3517 ft 148 kts 265°
2026-04-20 08:00 47.68943 8.43572 3506 ft 146 kts 265°
2026-04-20 08:00 47.69181 8.42175 3490 ft 138 kts 307°
2026-04-20 08:00 47.69899 8.41318 3489 ft 131 kts 341°
2026-04-20 08:01 47.70777 8.41223 3519 ft 124 kts 12°
2026-04-20 08:01 47.71519 8.41826 3497 ft 122 kts 46°
2026-04-20 08:01 47.71928 8.42924 3501 ft 127 kts 76°
2026-04-20 08:01 47.72024 8.44234 3504 ft 127 kts 82°
2026-04-20 08:02 47.72153 8.45553 3530 ft 132 kts 84°
2026-04-20 08:02 47.72267 8.46894 3492 ft 128 kts 82°
2026-04-20 08:02 47.72379 8.48219 3489 ft 128 kts 82°
2026-04-20 08:02 47.72495 8.49541 3516 ft 130 kts 81°
2026-04-20 08:03 47.72409 8.50880 3509 ft 135 kts 111°
2026-04-20 08:03 47.71757 8.51964 3279 ft 153 kts 148°
2026-04-20 08:03 47.70701 8.52205 2972 ft 162 kts 189°
2026-04-20 08:03 47.69635 8.52031 2787 ft 147 kts 160°
2026-04-20 08:04 47.68874 8.52940 2459 ft 140 kts 129°
2026-04-20 08:04 47.68898 8.54355 1985 ft 137 kts 70°
2026-04-20 08:04 47.69339 8.53947 1804 ft 111 kts 267°
2026-04-20 08:04 47.69116 8.52983 1537 ft 90 kts 248°
2026-04-20 08:05 47.68952 8.52340 1531 ft 0 kts 245°
2026-04-20 08:05 47.68949 8.52342 1531 ft 3 kts 125°
2026-04-20 08:05 47.68983 8.52470 1531 ft 16 kts 70°
2026-04-20 08:05 47.69002 8.52595 1531 ft 10 kts 110°
2026-04-20 08:06 47.68992 8.52626 1533 ft 1 kts 335°